Time,TemperatureF,DewpointF,PressureIn,WindDirection,WindDirectionDegrees,WindSpeedMPH,WindSpeedGustMPH,Humidity,HourlyPrecipIn,Conditions,Clouds,dailyrainin,SoftwareType,DateUTC
2013-02-25 00:04:00,22.7,22.0,30.16,WNW,294,0.0,0.0,95,0.00,,,0.00,weatherlink.com 1.10,2013-02-25 05:04:00,
2013-02-25 00:19:00,21.9,21.0,30.16,WNW,294,0.0,0.0,94,0.00,,,0.00,weatherlink.com 1.10,2013-02-25 05:19:00,
2013-02-25 00:34:00,21.7,20.0,30.16,WNW,294,0.0,0.0,94,0.00,,,0.00,weatherlink.com 1.10,2013-02-25 05:34:00,
2013-02-25 00:49:00,21.2,20.0,30.16,WNW,294,0.0,0.0,94,0.00,,,0.00,weatherlink.com 1.10,2013-02-25 05:49:00,
2013-02-25 01:04:00,20.9,20.0,30.16,WNW,294,0.0,0.0,94,0.00,,,0.00,weatherlink.com 1.10,2013-02-25 06:04:00,
2013-02-25 01:19:00,21.9,21.0,30.16,WNW,294,0.0,0.0,95,0.00,,,0.00,weatherlink.com 1.10,2013-02-25 06:19:00,
2013-02-25 01:34:00,22.7,22.0,30.16,WNW,294,0.0,0.0,95,0.00,,,0.00,weatherlink.com 1.10,2013-02-25 06:34:00,
2013-02-25 01:49:00,22.8,21.0,30.15,WNW,300,0.0,1.0,94,0.00,,,0.00,weatherlink.com 1.10,2013-02-25 06:49:00,
2013-02-25 02:04:00,22.5,21.0,30.16,NW,311,0.0,1.0,93,0.00,,,0.00,weatherlink.com 1.10,2013-02-25 07:04:00,
2013-02-25 02:19:00,21.5,20.0,30.15,NW,311,0.0,0.0,93,0.00,,,0.00,weatherlink.com 1.10,2013-02-25 07:19:00,
2013-02-25 02:34:00,21.1,19.0,30.15,NW,311,0.0,0.0,93,0.00,,,0.00,weatherlink.com 1.10,2013-02-25 07:34:00,
2013-02-25 02:49:00,21.6,20.0,30.15,ENE,65,0.0,1.0,94,0.00,,,0.00,weatherlink.com 1.10,2013-02-25 07:49:00,
2013-02-25 03:04:00,23.9,23.0,30.15,ENE,65,0.0,1.0,94,0.00,,,0.00,weatherlink.com 1.10,2013-02-25 08:04:00,
2013-02-25 03:20:00,24.6,22.0,30.14,ENE,65,0.0,1.0,90,0.00,,,0.00,weatherlink.com 1.10,2013-02-25 08:20:00,
2013-02-25 03:35:00,24.6,22.0,30.14,ENE,69,0.0,1.0,90,0.00,,,0.00,weatherlink.com 1.10,2013-02-25 08:35:00,
2013-02-25 03:50:00,24.4,21.0,30.14,East,82,0.0,0.0,88,0.00,,,0.00,weatherlink.com 1.10,2013-02-25 08:50:00,
2013-02-25 04:05:00,23.2,21.0,30.14,East,82,0.0,0.0,89,0.00,,,0.00,weatherlink.com 1.10,2013-02-25 09:05:00,
2013-02-25 04:20:00,21.8,19.0,30.15,East,82,0.0,0.0,89,0.00,,,0.00,weatherlink.com 1.10,2013-02-25 09:20:00,
2013-02-25 04:35:00,21.3,19.0,30.16,East,82,0.0,0.0,92,0.00,,,0.00,weatherlink.com 1.10,2013-02-25 09:35:00,
2013-02-25 04:50:00,20.8,19.0,30.16,East,82,0.0,0.0,92,0.00,,,0.00,weatherlink.com 1.10,2013-02-25 09:50:00,
2013-02-25 05:05:00,21.0,19.0,30.16,East,82,0.0,0.0,93,0.00,,,0.00,weatherlink.com 1.10,2013-02-25 10:05:00,
2013-02-25 05:20:00,21.5,20.0,30.16,East,82,0.0,0.0,93,0.00,,,0.00,weatherlink.com 1.10,2013-02-25 10:20:00,
2013-02-25 05:35:00,22.6,21.0,30.18,East,82,0.0,1.0,94,0.00,,,0.00,weatherlink.com 1.10,2013-02-25 10:35:00,
2013-02-25 05:50:00,22.1,20.0,30.18,East,82,0.0,0.0,92,0.00,,,0.00,weatherlink.com 1.10,2013-02-25 10:50:00,
2013-02-25 06:05:00,21.5,20.0,30.18,East,82,0.0,0.0,92,0.00,,,0.00,weatherlink.com 1.10,2013-02-25 11:05:00,
2013-02-25 06:20:00,21.1,19.0,30.19,East,82,0.0,0.0,93,0.00,,,0.00,weatherlink.com 1.10,2013-02-25 11:20:00,
2013-02-25 06:35:00,21.4,20.0,30.19,East,82,0.0,0.0,93,0.00,,,0.00,weatherlink.com 1.10,2013-02-25 11:35:00,
2013-02-25 06:50:00,20.8,19.0,30.19,East,82,0.0,1.0,93,0.00,,,0.00,weatherlink.com 1.10,2013-02-25 11:50:00,
2013-02-25 07:05:00,21.4,20.0,30.19,East,82,0.0,0.0,94,0.00,,,0.00,weatherlink.com 1.10,2013-02-25 12:05:00,
2013-02-25 07:20:00,22.5,21.0,30.19,East,84,0.0,1.0,94,0.00,,,0.00,weatherlink.com 1.10,2013-02-25 12:20:00,
2013-02-25 07:35:00,22.5,21.0,30.19,East,84,0.0,0.0,93,0.00,,,0.00,weatherlink.com 1.10,2013-02-25 12:35:00,
2013-02-25 07:50:00,21.9,20.0,30.19,East,84,0.0,0.0,92,0.00,,,0.00,weatherlink.com 1.10,2013-02-25 12:50:00,
2013-02-25 08:05:00,25.6,24.0,30.19,East,84,0.0,0.0,93,0.00,,,0.00,weatherlink.com 1.10,2013-02-25 13:05:00,
2013-02-25 08:20:00,29.6,26.0,30.19,East,83,0.0,1.0,86,0.00,,,0.00,weatherlink.com 1.10,2013-02-25 13:20:00,
2013-02-25 08:35:00,30.4,26.0,30.18,SE,132,1.0,2.0,82,0.00,,,0.00,weatherlink.com 1.10,2013-02-25 13:35:00,
2013-02-25 08:50:00,32.5,26.0,30.18,NNW,343,0.0,3.0,78,0.00,,,0.00,weatherlink.com 1.10,2013-02-25 13:50:00,
2013-02-25 09:05:00,33.5,27.0,30.18,ENE,57,1.0,5.0,76,0.00,,,0.00,weatherlink.com 1.10,2013-02-25 14:05:00,
2013-02-25 09:20:00,34.7,28.0,30.18,ENE,63,0.0,5.0,75,0.00,,,0.00,weatherlink.com 1.10,2013-02-25 14:20:00,
2013-02-25 09:35:00,36.4,28.0,30.18,SE,145,2.0,4.0,72,0.00,,,0.00,weatherlink.com 1.10,2013-02-25 14:35:00,
2013-02-25 09:50:00,36.4,28.0,30.19,SE,146,6.0,11.0,71,0.00,,,0.00,weatherlink.com 1.10,2013-02-25 14:50:00,
2013-02-25 10:05:00,36.9,28.0,30.18,NE,56,2.0,8.0,70,0.00,,,0.00,weatherlink.com 1.10,2013-02-25 15:05:00,
2013-02-25 10:20:00,37.6,28.0,30.18,ENE,57,4.0,9.0,68,0.00,,,0.00,weatherlink.com 1.10,2013-02-25 15:20:00,
2013-02-25 10:35:00,37.9,28.0,30.18,NE,53,4.0,10.0,67,0.00,,,0.00,weatherlink.com 1.10,2013-02-25 15:35:00,
2013-02-25 10:50:00,38.3,27.0,30.18,WSW,258,4.0,8.0,65,0.00,,,0.00,weatherlink.com 1.10,2013-02-25 15:50:00,
2013-02-25 11:06:00,38.5,27.0,30.17,East,81,5.0,8.0,64,0.00,,,0.00,weatherlink.com 1.10,2013-02-25 16:06:00,
2013-02-25 11:21:00,39.4,28.0,30.17,NNW,338,3.0,7.0,63,0.00,,,0.00,weatherlink.com 1.10,2013-02-25 16:21:00,
2013-02-25 11:36:00,40.0,27.0,30.17,ENE,61,4.0,7.0,60,0.00,,,0.00,weatherlink.com 1.10,2013-02-25 16:36:00,
2013-02-25 11:51:00,40.4,27.0,30.16,NE,49,4.0,8.0,59,0.00,,,0.00,weatherlink.com 1.10,2013-02-25 16:51:00,
2013-02-25 12:06:00,40.4,27.0,30.16,ENE,60,3.0,9.0,60,0.00,,,0.00,weatherlink.com 1.10,2013-02-25 17:06:00,
2013-02-25 12:21:00,40.6,27.0,30.14,ENE,64,5.0,10.0,58,0.00,,,0.00,weatherlink.com 1.10,2013-02-25 17:21:00,
2013-02-25 12:36:00,41.2,28.0,30.14,ENE,60,5.0,9.0,60,0.00,,,0.00,weatherlink.com 1.10,2013-02-25 17:36:00,
2013-02-25 12:51:00,42.0,28.0,30.12,ESE,115,4.0,7.0,59,0.00,,,0.00,weatherlink.com 1.10,2013-02-25 17:51:00,
2013-02-25 13:06:00,42.2,28.0,30.12,ENE,64,8.0,8.0,58,0.00,,,0.00,weatherlink.com 1.10,2013-02-25 18:06:00,
2013-02-25 13:21:00,42.1,28.0,30.11,South,191,1.0,7.0,57,0.00,,,0.00,weatherlink.com 1.10,2013-02-25 18:21:00,
2013-02-25 13:36:00,42.8,28.0,30.10,NE,50,2.0,7.0,56,0.00,,,0.00,weatherlink.com 1.10,2013-02-25 18:36:00,
2013-02-25 13:51:00,43.0,29.0,30.10,NE,35,2.0,7.0,59,0.00,,,0.00,weatherlink.com 1.10,2013-02-25 18:51:00,
2013-02-25 14:06:00,43.1,28.0,30.10,SE,134,3.0,9.0,56,0.00,,,0.00,weatherlink.com 1.10,2013-02-25 19:06:00,
2013-02-25 14:21:00,43.4,29.0,30.09,East,85,4.0,7.0,58,0.00,,,0.00,weatherlink.com 1.10,2013-02-25 19:21:00,
2013-02-25 14:36:00,43.3,29.0,30.09,ENE,66,5.0,10.0,57,0.00,,,0.00,weatherlink.com 1.10,2013-02-25 19:36:00,
2013-02-25 14:51:00,43.6,30.0,30.08,SSW,201,1.0,9.0,58,0.00,,,0.00,weatherlink.com 1.10,2013-02-25 19:51:00,
2013-02-25 15:06:00,44.0,29.0,30.08,NE,56,4.0,8.0,57,0.00,,,0.00,weatherlink.com 1.10,2013-02-25 20:06:00,
2013-02-25 15:21:00,44.0,29.0,30.07,ENE,73,2.0,9.0,57,0.00,,,0.00,weatherlink.com 1.10,2013-02-25 20:21:00,
2013-02-25 15:36:00,44.2,30.0,30.06,East,82,6.0,8.0,57,0.00,,,0.00,weatherlink.com 1.10,2013-02-25 20:36:00,
2013-02-25 15:51:00,44.1,28.0,30.05,ENE,62,5.0,9.0,54,0.00,,,0.00,weatherlink.com 1.10,2013-02-25 20:51:00,
2013-02-25 16:06:00,44.3,29.0,30.04,ENE,67,4.0,9.0,55,0.00,,,0.00,weatherlink.com 1.10,2013-02-25 21:06:00,
2013-02-25 16:21:00,44.3,29.0,30.04,ENE,64,5.0,8.0,56,0.00,,,0.00,weatherlink.com 1.10,2013-02-25 21:21:00,
2013-02-25 16:36:00,44.2,29.0,30.05,East,97,4.0,8.0,56,0.00,,,0.00,weatherlink.com 1.10,2013-02-25 21:36:00,
2013-02-25 17:06:00,43.3,29.0,30.04,ENE,66,4.0,7.0,58,0.00,,,0.00,weatherlink.com 1.10,2013-02-25 22:06:00,
2013-02-25 17:21:00,42.7,29.0,30.04,SSW,204,2.0,7.0,58,0.00,,,0.00,weatherlink.com 1.10,2013-02-25 22:21:00,
2013-02-25 17:36:00,41.8,28.0,30.03,SE,141,3.0,8.0,58,0.00,,,0.00,weatherlink.com 1.10,2013-02-25 22:36:00,
2013-02-25 17:52:00,41.0,29.0,30.03,NW,323,2.0,7.0,63,0.00,,,0.00,weatherlink.com 1.10,2013-02-25 22:52:00,
2013-02-25 18:06:00,40.4,29.0,30.03,NE,40,4.0,6.0,64,0.00,,,0.00,weatherlink.com 1.10,2013-02-25 23:06:00,
2013-02-25 18:21:00,39.8,29.0,30.02,NNE,22,6.0,8.0,65,0.00,,,0.00,weatherlink.com 1.10,2013-02-25 23:21:00,
2013-02-25 18:36:00,39.2,28.0,30.03,ENE,63,2.0,6.0,65,0.00,,,0.00,weatherlink.com 1.10,2013-02-25 23:36:00,
2013-02-25 18:51:00,38.5,28.0,30.02,East,89,4.0,6.0,67,0.00,,,0.00,weatherlink.com 1.10,2013-02-25 23:51:00,
2013-02-25 19:06:00,37.9,29.0,30.03,East,99,3.0,5.0,70,0.00,,,0.00,weatherlink.com 1.10,2013-02-26 00:06:00,
2013-02-25 19:22:00,37.9,29.0,30.02,East,91,2.0,7.0,70,0.00,,,0.00,weatherlink.com 1.10,2013-02-26 00:22:00,
2013-02-25 19:37:00,37.6,29.0,30.00,WNW,293,1.0,6.0,71,0.00,,,0.00,weatherlink.com 1.10,2013-02-26 00:37:00,
2013-02-25 19:52:00,37.2,29.0,30.00,ENE,72,2.0,6.0,72,0.00,,,0.00,weatherlink.com 1.10,2013-02-26 00:52:00,
2013-02-25 20:07:00,37.0,29.0,29.98,West,279,4.0,14.0,73,0.00,,,0.00,weatherlink.com 1.10,2013-02-26 01:07:00,
2013-02-25 20:22:00,37.0,29.0,29.98,South,177,1.0,11.0,73,0.00,,,0.00,weatherlink.com 1.10,2013-02-26 01:22:00,
2013-02-25 20:37:00,36.8,29.0,29.97,East,83,2.0,8.0,73,0.00,,,0.00,weatherlink.com 1.10,2013-02-26 01:37:00,
2013-02-25 20:52:00,36.5,29.0,29.98,ENE,65,2.0,8.0,74,0.00,,,0.00,weatherlink.com 1.10,2013-02-26 01:52:00,
2013-02-25 21:07:00,36.4,29.0,29.98,ESE,110,5.0,7.0,75,0.00,,,0.00,weatherlink.com 1.10,2013-02-26 02:07:00,
2013-02-25 21:22:00,36.3,29.0,30.00,ENE,67,4.0,10.0,75,0.00,,,0.00,weatherlink.com 1.10,2013-02-26 02:22:00,
2013-02-25 21:37:00,35.9,29.0,30.01,ENE,68,2.0,5.0,76,0.00,,,0.00,weatherlink.com 1.10,2013-02-26 02:37:00,
2013-02-25 21:52:00,35.7,29.0,30.01,ENE,68,3.0,7.0,76,0.00,,,0.00,weatherlink.com 1.10,2013-02-26 02:52:00,
2013-02-25 22:07:00,35.3,29.0,30.00,ENE,69,1.0,5.0,77,0.00,,,0.00,weatherlink.com 1.10,2013-02-26 03:07:00,
2013-02-25 22:22:00,35.1,29.0,29.99,East,79,4.0,9.0,78,0.00,,,0.00,weatherlink.com 1.10,2013-02-26 03:22:00,
2013-02-25 22:37:00,35.2,29.0,29.98,ESE,117,2.0,7.0,77,0.00,,,0.00,weatherlink.com 1.10,2013-02-26 03:37:00,
2013-02-25 22:52:00,35.1,29.0,29.97,SSE,158,1.0,8.0,78,0.00,,,0.00,weatherlink.com 1.10,2013-02-26 03:52:00,
2013-02-25 23:07:00,35.1,29.0,29.95,ENE,72,6.0,11.0,78,0.00,,,0.00,weatherlink.com 1.10,2013-02-26 04:07:00,
2013-02-25 23:22:00,34.8,29.0,29.94,ESE,108,2.0,6.0,78,0.00,,,0.00,weatherlink.com 1.10,2013-02-26 04:22:00,
2013-02-25 23:37:00,34.4,29.0,29.94,WSW,244,3.0,7.0,79,0.00,,,0.00,weatherlink.com 1.10,2013-02-26 04:37:00,
2013-02-25 23:52:00,34.3,28.0,29.94,WNW,299,3.0,9.0,79,0.00,,,0.00,weatherlink.com 1.10,2013-02-26 04:52:00,